CW0630 Weather Reports


time (UTC)temp
F
wind
direction
speed
knots
gust
knots
rain 1hr
in
rain 24hr
in
rain mn
in
humidity
%
barometer
mb
20260503041025 51 21 0.9 1.7 0.00 0.00 0.00 66 1013.0
20260503031016 51 22 0.0 0.0 0.00 0.00 0.00 66 1013.0
20260503021001 52 22 0.0 0.0 0.00 0.00 0.00 68 1012.9
20260503011004 53 22 0.0 0.0 0.00 0.00 0.00 64 1012.5
20260503000953 53 22 0.0 0.0 0.00 0.00 0.00 61 1011.8
20260502230947 57 30 2.6 2.6 0.00 0.00 0.00 49 1011.0
20260502221004 59 305 1.7 1.7 0.00 0.00 0.00 45 1011.1
20260502210959 59 343 3.5 5.2 0.00 0.00 0.00 45 1010.9
20260502200956 61 337 1.7 1.7 0.00 0.00 0.00 46 1011.3
20260502191015 61 330 1.7 1.7 0.00 0.00 0.00 45 1011.7
20260502181002 60 293 2.6 3.5 0.00 0.00 0.00 48 1012.6
20260502161000 55 328 1.7 9.6 0.00 0.00 0.00 51 1014.1
20260502151006 54 5 3.5 5.2 0.00 0.00 0.00 54 1014.1
20260502120949 51 348 1.7 8.7 0.00 0.00 0.00 73 1012.9
20260502111018 51 348 0.0 3.5 0.00 0.00 0.00 77 1013.0
20260502101005 51 10 2.6 3.5 0.00 0.00 0.00 79 1012.4
20260502091001 51 5 3.5 3.5 0.00 0.00 0.00 80 1012.4
20260502071000 51 265 0.0 0.0 0.00 0.00 0.00 83 1011.8
20260502061002 52 265 0.9 0.9 0.00 0.00 0.00 79 1011.9
20260502050953 55 194 2.6 2.6 0.00 0.00 0.00 74 1012.0